CZ-6A DEB, 54345

Orbit data source: Space-Track

CZ-6A DEB, 54345 is space debris in SSO originally from a launch on Fri, 11 Nov 2022 UTC launched from the Taiyaun Space Center, China (TSC). Debris objects in space refer to the collection of defunct objects orbiting the Earth. Examples of debris include non-operational satellites, rocket bodies, and fragments generated from explosions, collisions, or faulty payload assembly.

Loading next visibility...
Identifier
54345, 2022-151CQ
Orbit
SSO
Country
Flag of CNCN / PRC
Related business
Manufacturer
SAST
Mission
Spacecraft
Bus & Motor
Unknown
Mass
Unknown
Launch date (UTC)
2022-11-11 (4 years ago)
Launch vehicle
Unknown
Launch site
Taiyaun Space Center, China (TSC)
Object type
Payload
Rocket body
Debris
Shape & HBR
Unknown shape, 0.1 m
Radar Cross Section
Medium (>0.1 m² and <1 m²)

Expand to show TLE details & history
Last TLE update: 2 days ago

TLE from 2 days ago
0 CZ-6A DEB
1 54345U 22151CQ  26171.02559227  .00005570  00000-0  15067-2 0  9999
2 54345  98.6574 201.7213 0054399  60.1881 300.4704 14.47271631187956
Epoch: 2026-06-20T00:36Z
TLE epoch observation values (Epoch: 2026-06-20T00:36:51.172Z)
Latitude
0.00001°
Longitude
-75.73805°
Altitude
718.059 km
Speed
7.507 km/s
True Right ascension
13h 26m 53s
True Declination
0° 00' 00"
Sunlit
Object was in daylight at epoch
Visualization orbit readout
Latitude
Unknown
Longitude
Unknown
Altitude
Unknown
Speed
Unknown
Apparent Right ascension
Unknown
Apparent Declination
Unknown
Sunlit
N/A
Visualization observer readout
Local Sidereal Time
21:33:19
Azimuth
Unknown
Elevation
Unknown
Doppler factor
Unknown
Orbital elements
Apogee altitude
770.37 km
Perigee altitude
693.016 km
Semi-major axis
7,109.83 km
Eccentricity
0.00544
Inclination
98.6574°
RAAN
201.7213°
Arg. of periapsis
60.1881°
True anomaly
299.93127°
Mean anomaly
300.4704°
Eccentric anomaly
300.20102°
Mean motion
3.62038 °/min
Orbital period
99.44 mins
BSTAR
0.0015067
Loading maneuver chart data...
Computing Atmospheric mass density...
Loading historical data...
Loading historical data...
Loading historical data...
Loading historical data...
Loading historical data...
Loading historical data...
Loading historical data...

Documentation

Showing up to 5 results
|